Terminal Aerodrome Forecast
Issued by NWS Flagstaff, AZ

Home | Current Version | Previous Version | Text Only | Print | Product List | Glossary On
Versions: 1 2 3 4 5 6 7 8 9 10 11 12 13 14 15 16 17 18 19
000
FTUS45 KFGZ 040536
TAFINW
TAF
KINW 040536Z 0406/0506 13008KT P6SM SCT100 BKN200
     FM042000 21012KT P6SM SCT080 BKN200
      TEMPO 0421/0501 VRB20G30KT 5SM TSRA BKN040CB
     FM050300 VRB06KT P6SM SCT080 BKN120=

USA.gov is the U.S. government's official web portal to all federal, state and local government web resources and services.